Location: Ceske Budejovice
(48.9830°N, 14.4670°E)
Time: 01:48:40
(UTC+02:00)

Oscar 19 - Visible Passes

Search period start: 20 July 2019 00:00
Search period end: 30 July 2019 00:00
Orbit: 773 x 791 km, 98.6° (Epoch: 18 July)

Date Brightness Start Highest point End Pass type
(mag) Time Alt. Az. Time Alt. Az. Time Alt. Az.
20 Jul 10.8 03:02:18 10° NNE 03:07:27 67° ESE 03:11:04 20° S visible
21 Jul 11.7 02:30:40 10° NNE 02:35:24 36° E 02:38:44 18° SSE visible
21 Jul 11.5 04:10:02 10° N 04:14:43 36° WNW 04:19:17 11° SW visible
22 Jul 12.6 01:59:27 10° NE 02:03:13 20° E 02:06:24 12° SE visible
22 Jul 10.8 03:37:52 10° N 03:42:58 64° WNW 03:46:57 17° SSW visible
23 Jul 13.1 01:29:58 10° ENE 01:30:51 10° E 01:31:45 10° E visible
23 Jul 10.8 03:05:56 10° NNE 03:11:06 71° ESE 03:14:36 21° S visible
24 Jul 11.6 02:34:15 10° NNE 02:39:04 39° E 02:42:16 19° SSE visible
24 Jul 11.6 04:13:43 10° N 04:18:20 34° WNW 04:22:49 11° SW visible
25 Jul 12.5 02:02:59 10° NE 02:06:54 21° E 02:09:56 13° SE visible
25 Jul 10.8 03:41:31 10° N 03:46:37 60° WNW 03:50:29 17° SW visible
26 Jul 13.0 01:32:58 10° ENE 01:34:34 11° E 01:36:10 10° ESE visible
26 Jul 10.7 03:09:33 10° NNE 03:14:45 76° ESE 03:18:08 22° S visible
27 Jul 11.5 02:37:51 10° NNE 02:42:44 41° E 02:45:47 21° SSE visible
27 Jul 11.7 04:17:24 10° N 04:21:57 32° WNW 04:26:20 11° SW visible
28 Jul 12.4 02:06:31 10° NE 02:10:35 23° E 02:13:27 15° SE visible
28 Jul 10.9 03:45:11 10° N 03:50:15 57° WNW 03:54:00 18° SW visible
29 Jul 13.0 01:36:12 10° ENE 01:38:16 12° E 01:40:20 10° ESE visible
29 Jul 10.7 03:13:11 10° NNE 03:18:24 81° ESE 03:21:39 24° S visible
